x

Chambers Island, Wi (cbrw3) Weather Station

8:40am - Fri 12th Feb 2016 All times are CST. -6 hours from GMT.

  • Wind
    9mph, 21mph gusts
  • Air Temp 14°f
  • Sea Pressure 1017.6mb
  • Chambers Island, Wi
  • Chambers Island, Wi

More Historic Weather Station data

Upgrade to MSW Pro to gain access to the past 30 days of data for over 8000 Wavebouys and Weather Stations around the globe.

Join Pro

Comparision Forecast

View Surf forecast
   
Fri 02/12 8:40am 9 21 mph 1017.6mb 14f
8:30am 7 18 mph 1017.6mb 14f
8:20am 10 22 mph 1017.6mb 12f
8:10am 10 20 mph 1017.6mb 13f
8:00am 9 18 mph 1017.6mb 13f
7:40am 11 18 mph 1017.6mb 12f
7:30am 10 20 mph 1017.6mb 12f
7:20am 9 16 mph 1017.6mb 12f
7:10am 13 20 mph 1017.6mb 12f
7:00am 10 20 mph 1017.3mb 12f
6:40am 10 18 mph 1017.3mb 12f
6:30am 10 18 mph 1017.3mb 12f
6:20am 8 16 mph 1017.3mb 12f
6:10am 9 15 mph 1017.3mb 13f
6:00am 11 18 mph 1017.3mb 13f
5:40am 9 18 mph 1017.3mb 13f
5:30am 9 15 mph 1017.3mb 13f
5:20am 9 18 mph 1017.3mb 13f
5:10am 9 16 mph 1017.3mb 14f
5:00am 10 17 mph 1017.3mb 14f
4:40am 6 16 mph 1017.3mb 14f
4:30am 9 18 mph 1017.3mb 14f
4:20am 8 20 mph 1017.3mb 14f
4:10am 11 18 mph 1017.3mb 14f
4:00am 9 16 mph 1017.3mb 14f
3:40am 6 18 mph 1017.3mb 15f
3:30am 6 21 mph 1017.3mb 15f
3:20am 7 17 mph 1017.3mb 15f
3:10am 11 20 mph 1017.3mb 15f
3:00am 6 18 mph 1017.6mb 15f
2:40am 8 17 mph 1017.6mb 15f
2:30am 7 17 mph 1017.6mb 15f
2:20am 8 16 mph 1017.6mb 15f
2:10am 8 15 mph 1017.9mb 15f
2:00am 8 15 mph 1017.9mb 15f
1:40am 7 16 mph 1017.9mb 15f
1:30am 9 17 mph 1017.9mb 16f
1:20am 11 18 mph 1017.9mb 16f
1:10am 9 17 mph 1017.9mb 16f
1:00am 9 17 mph 1018.3mb 16f
12:40am 8 18 mph 1018.6mb 16f
12:30am 8 18 mph 1018.6mb 16f
12:20am 10 16 mph 1018.6mb 16f
12:10am 10 16 mph 1018.6mb 16f
12:00am 10 18 mph 1018.6mb 16f
Thu 02/11 11:40pm 10 18 mph 1019mb 16f
11:30pm 10 20 mph 1019mb 16f
11:20pm 10 18 mph 1019.3mb 16f
11:10pm 11 21 mph 1019.3mb 16f
11:00pm 13 23 mph 1019.3mb 16f
10:40pm 11 20 mph 1019.6mb 16f
10:30pm 11 21 mph 1019.6mb 16f
10:20pm 14 21 mph 1019.6mb 16f
10:10pm 11 21 mph 1020mb 16f
10:00pm 11 21 mph 1020mb 16f
9:40pm 11 17 mph 1020mb 16f
9:30pm 11 18 mph 1020mb 16f
9:20pm 13 22 mph 1020.3mb 16f
9:10pm 10 21 mph 1020.3mb 16f
9:00pm 11 21 mph 1020.3mb 17f
8:40pm 9 20 mph 1020.3mb 17f
8:30pm 9 15 mph 1020.3mb 17f
8:20pm 10 16 mph 1020.3mb 17f
8:10pm 8 14 mph 1020.3mb 17f
8:00pm 10 16 mph 1020.7mb 17f
7:40pm 8 16 mph 1021mb 17f
7:30pm 9 15 mph 1021mb 17f
7:20pm 9 15 mph 1021mb 17f
7:10pm 8 14 mph 1021.3mb 17f
7:00pm 8 13 mph 1021.3mb 16f
6:40pm 8 14 mph 1021.3mb 16f
6:30pm 7 13 mph 1021.3mb 16f
6:20pm 6 8 mph 1021.3mb 16f
6:10pm 6 9 mph 1021.3mb 16f
6:00pm 7 13 mph 1021.3mb 16f
5:40pm 6 14 mph 1021.3mb 15f
5:30pm 6 9 mph 1021.7mb 15f
5:20pm 7 13 mph 1021.7mb 15f
5:10pm 7 14 mph 1021.7mb 15f
5:00pm 7 15 mph 1021.7mb 15f
4:40pm 7 15 mph 1021.3mb 16f
4:30pm 7 14 mph 1021.7mb 16f
4:20pm 8 13 mph 1021.7mb 16f
4:10pm 9 16 mph 1021.7mb 16f
4:00pm 7 11 mph 1021.7mb 17f
3:40pm 8 16 mph 1021.7mb 17f
3:30pm 10 15 mph 1021.7mb 16f
3:20pm 9 17 mph 1021.7mb 16f
3:10pm 10 17 mph 1022mb 16f
3:00pm 10 15 mph 1022mb 17f
2:40pm 9 13 mph 1022mb 18f
2:30pm 8 14 mph 1022.4mb 18f
2:20pm 8 11 mph 1022.4mb 18f
2:10pm 9 15 mph 1022.4mb 17f
2:00pm 9 15 mph 1022.7mb 17f
1:40pm 6 13 mph 1022.7mb 18f
1:30pm 8 13 mph 1023mb 17f
1:20pm 7 13 mph 1023mb 17f
1:10pm 6 10 mph 1023mb 18f
1:00pm 8 13 mph 1023mb 17f
12:40pm 8 13 mph 1023.4mb 16f
12:30pm 8 14 mph 1023.4mb 17f
12:20pm 8 10 mph 1023.4mb 17f
12:10pm 7 11 mph 1023.4mb 17f
12:00pm 6 11 mph 1023.7mb 16f
11:40am 8 10 mph 1023.7mb 16f
11:30am 6 10 mph 1023.7mb 15f
11:20am 6 16 mph 1024mb 15f
11:10am 6 10 mph 1024mb 16f
11:00am 7 10 mph 1024mb 15f
10:40am 8 14 mph 1024mb 16f
10:30am 9 14 mph 1023.7mb 16f
10:20am 9 14 mph 1023.7mb 16f
10:10am 11 16 mph 1023.7mb 15f
10:00am 13 18 mph 1023.7mb 14f
9:40am 15 20 mph 1023.7mb 14f
9:30am 14 20 mph 1023.7mb 14f
9:20am 14 20 mph 1023.7mb 14f
9:10am 14 20 mph 1023.7mb 13f
9:00am 14 20 mph 1023.4mb 13f
8:50am 11 20 mph 1023.4mb 12f
8:40am 13 20 mph 1023.4mb 12f
8:30am 13 17 mph 1023.4mb 12f
8:20am 11 17 mph 1023.7mb 12f
8:10am 14 17 mph 1023.7mb 11f
8:00am 11 17 mph 1023.7mb 11f
7:50am 11 20 mph 1023.4mb 10f
7:40am 10 17 mph 1023.4mb 10f
7:30am 13 18 mph 1023.4mb 10f
7:20am 13 16 mph 1023.4mb 9f
7:10am 11 17 mph 1023.4mb 8f
7:00am 10 16 mph 1023.4mb 8f
6:50am 10 15 mph 1023.4mb 7f
6:40am 10 17 mph 1023mb 8f
6:30am 9 15 mph 1023mb 8f
6:20am 8 16 mph 1023mb 7f
6:10am 9 17 mph 1023mb 8f
6:00am 10 16 mph 1022.7mb 8f
5:50am 9 17 mph 1022.7mb 8f
5:40am 10 15 mph 1022.4mb 8f
5:30am 10 16 mph 1022.4mb 8f
5:20am 10 17 mph 1022.4mb 8f
5:10am 9 15 mph 1022.4mb 8f
5:00am 8 16 mph 1022.4mb 8f
4:50am 8 14 mph 1022.4mb 8f
4:40am 9 15 mph 1022mb 8f
4:30am 8 15 mph 1022mb 8f
4:20am 9 17 mph 1021.7mb 8f
4:10am 8 18 mph 1021.7mb 8f
4:00am 9 17 mph 1021.3mb 9f
3:50am 13 20 mph 1021.3mb 9f
3:40am 13 21 mph 1021mb 9f
3:30am 13 20 mph 1021mb 9f
3:20am 13 21 mph 1021mb 9f
3:10am 13 20 mph 1020.7mb 9f
3:00am 13 18 mph 1021mb 9f
2:50am 10 16 mph 1021mb 8f
2:40am 8 15 mph 1021mb 8f
2:30am 8 16 mph 1021mb 8f
2:20am 8 17 mph 1020.7mb 8f
2:10am 9 15 mph 1020.7mb 8f
2:00am 9 16 mph 1020.7mb 8f
1:50am 9 17 mph 1020.7mb 9f
1:40am 8 15 mph 1020.7mb 8f
1:30am 8 14 mph 1020.7mb 8f
1:20am 7 14 mph 1020.3mb 9f
1:10am 7 13 mph 1020.7mb 9f
1:00am 6 10 mph 1020.3mb 9f
12:50am 7 11 mph 1020.7mb 9f
12:40am 8 13 mph 1020.3mb 9f
12:30am 7 15 mph 1020.3mb 9f
12:20am 7 14 mph 1020.3mb 9f
12:10am 6 11 mph 1020mb 9f
12:00am 6 18 mph 1020.3mb 9f
Wed 02/10 11:50pm 6 15 mph 1020.3mb 9f
11:40pm 8 14 mph 1020.3mb 9f
11:30pm 7 15 mph 1020.3mb 9f
11:20pm 6 15 mph 1020.3mb 9f
11:10pm 7 15 mph 1020.3mb 9f
11:00pm 8 15 mph 1020.3mb 9f
10:50pm 9 15 mph 1020.3mb 9f
10:40pm 13 20 mph 1020.3mb 9f
10:30pm 13 25 mph 1020.3mb 9f
10:20pm 15 24 mph 1020.3mb 9f
10:10pm 21 28 mph 1020mb 9f
10:00pm 22 26 mph 1020mb 9f
9:50pm 15 23 mph 1020.3mb 8f
9:40pm 13 21 mph 1020.3mb 8f
9:30pm 13 22 mph 1020.3mb 8f
9:20pm 16 23 mph 1020.3mb 8f
9:10pm 18 24 mph 1020mb 9f
9:00pm 18 28 mph 1019.6mb 9f
8:50pm 21 28 mph 1019.6mb 9f
8:40pm 20 26 mph 1019.6mb 9f
8:30pm 17 24 mph 1019.3mb 9f
8:20pm 16 24 mph 1019.3mb 9f
8:10pm 16 22 mph 1019.6mb 9f
8:00pm 17 25 mph 1019.6mb 9f
7:50pm 16 21 mph 1019.3mb 9f
7:40pm 15 24 mph 1019.6mb 9f
7:30pm 16 28 mph 1019.6mb 9f
7:20pm 20 24 mph 1019.6mb 9f
7:10pm 17 26 mph 1019.3mb 9f
7:00pm 20 26 mph 1019.3mb 9f
6:50pm 20 24 mph 1019mb 10f
6:40pm 17 24 mph 1019mb 10f
6:30pm 20 23 mph 1019mb 10f
6:20pm 15 21 mph 1019mb 10f
6:10pm 18 23 mph 1019mb 10f
6:00pm 15 24 mph 1018.6mb 10f
5:50pm 16 22 mph 1018.6mb 11f
5:40pm 13 22 mph 1018.6mb 11f
5:30pm 13 23 mph 1018.3mb 11f
5:20pm 14 20 mph 1017.9mb 11f
5:10pm 14 23 mph 1017.9mb 11f
5:00pm 18 24 mph 1017.6mb 11f
4:50pm 10 20 mph 1017.6mb 12f
4:40pm 16 23 mph 1017.6mb 12f
4:30pm 16 23 mph 1016.9mb 13f
4:20pm 14 20 mph 1017.3mb 13f
4:10pm 13 24 mph 1016.9mb 13f
4:00pm 14 23 mph 1016.9mb 13f
3:50pm 21 25 mph 1016.6mb 13f
3:40pm 14 26 mph 1016.3mb 14f
3:30pm 14 22 mph 1016.3mb 13f
3:20pm 16 24 mph 1015.9mb 13f
3:10pm 20 29 mph 1016.3mb 14f
3:00pm 18 25 mph 1015.9mb 15f
2:50pm 18 28 mph 1015.9mb 14f
2:40pm 15 23 mph 1015.9mb 15f
2:30pm 15 23 mph 1015.6mb 15f
2:20pm 20 24 mph 1015.2mb 14f
2:10pm 21 25 mph 1015.2mb 15f
2:00pm 15 26 mph 1015.6mb 16f
1:50pm 21 26 mph 1015.2mb 16f
1:40pm 20 24 mph 1014.9mb 14f
1:30pm 17 25 mph 1015.2mb 15f
1:20pm 18 22 mph 1015.2mb 16f
1:10pm 17 25 mph 1015.2mb 14f
1:00pm 21 26 mph 1014.9mb 15f
12:50pm 15 23 mph 1014.9mb 15f
12:40pm 13 24 mph 1015.2mb 15f
12:30pm 20 23 mph 1015.2mb 15f
12:20pm 20 24 mph 1015.2mb 15f
12:10pm 18 23 mph 1015.2mb 15f
12:00pm 17 22 mph 1015.2mb 15f
11:40am 15 24 mph 1015.2mb 14f
11:30am 23 28 mph 1015.2mb 13f
11:20am 16 24 mph 1015.2mb 14f
11:10am 16 23 mph 1015.6mb 14f
11:00am 17 23 mph 1015.2mb 13f
10:50am 17 25 mph 1015.6mb 13f
10:40am 20 26 mph 1015.2mb 13f
10:30am 16 24 mph 1015.6mb 13f
10:20am 18 23 mph 1015.2mb 12f
10:10am 17 24 mph 1015.6mb 12f
10:00am 17 26 mph 1015.6mb 12f
9:50am 17 25 mph 1015.6mb 12f
9:40am 20 30 mph 1015.2mb 11f
9:30am 24 31 mph 1015.2mb 11f
9:20am 18 30 mph 1014.9mb 11f
9:10am 21 26 mph 1015.2mb 10f
9:00am 21 26 mph 1014.9mb 10f
8:50am 17 30 mph 1014.9mb 10f
8:40am 18 25 mph 1014.9mb 10f
8:30am 18 26 mph 1014.6mb 9f
8:20am 20 28 mph 1014.9mb 9f
8:10am 17 28 mph 1014.9mb 9f
8:00am 20 26 mph 1014.6mb 8f
7:50am 21 26 mph 1014.2mb 8f
7:40am 18 30 mph 1014.6mb 8f
7:30am 18 26 mph 1014.6mb 8f
7:20am 18 26 mph 1013.9mb 8f
7:10am 16 24 mph 1014.2mb 7f
7:00am 17 29 mph 1014.2mb 7f
6:50am 18 24 mph 1013.9mb 7f
6:40am 16 26 mph 1013.9mb 7f
6:30am 15 23 mph 1013.9mb 7f
6:20am 15 23 mph 1013.9mb 7f
6:10am 17 22 mph 1013.5mb 7f
6:00am 16 24 mph 1013.5mb 8f
5:50am 15 23 mph 1013.9mb 8f
5:40am 14 23 mph 1013.9mb 8f
5:30am 13 23 mph 1013.5mb 8f
5:20am 11 23 mph 1013.5mb 8f
5:10am 14 22 mph 1013.2mb 8f
5:00am 13 23 mph 1013.5mb 8f
4:50am 15 25 mph 1013.2mb 8f
4:40am 14 23 mph 1013.2mb 8f
4:30am 14 24 mph 1013.2mb 8f
4:20am 14 22 mph 1013.2mb 8f
4:10am 16 24 mph 1013.2mb 9f
4:00am 14 22 mph 1012.9mb 9f
3:50am 17 26 mph 1012.9mb 9f
3:40am 15 26 mph 1012.9mb 9f
3:30am 16 28 mph 1012.9mb 9f
3:20am 16 29 mph 1012.9mb 9f
3:10am 16 24 mph 1013.2mb 9f
3:00am 17 25 mph 1013.2mb 10f
2:50am 16 26 mph 1012.5mb 10f
2:40am 18 26 mph 1013.2mb 10f
2:30am 22 29 mph 1012.9mb 10f
2:20am 22 30 mph 1012.9mb 10f
2:10am 21 29 mph 1012.9mb 10f
2:00am 18 25 mph 1012.9mb 10f
1:50am 17 30 mph 1012.5mb 10f
1:40am 16 28 mph 1012.9mb 10f
1:30am 21 28 mph 1012.5mb 10f
1:20am 20 29 mph 1012.5mb 10f
1:10am 18 26 mph 1012.5mb 10f
1:00am 20 29 mph 1012.5mb 11f
12:50am 18 28 mph 1012.5mb 11f
12:40am 18 29 mph 1012.5mb 11f
12:30am 22 30 mph 1012.5mb 11f
12:20am 20 29 mph 1012.5mb 11f
12:10am 22 32 mph 1012.2mb 12f
12:00am 24 32 mph 1011.9mb 12f
Tue 02/09 11:50pm 24 30 mph 1011.9mb 12f
11:40pm 21 28 mph 1012.2mb 12f
11:30pm 24 32 mph 1012.2mb 12f
11:20pm 17 36 mph 1012.2mb 12f
11:10pm 25 31 mph 1011.9mb 13f
11:00pm 23 32 mph 1012.2mb 13f
10:50pm 21 28 mph 1011.9mb 13f
10:40pm 18 31 mph 1012.2mb 13f
10:30pm 17 29 mph 1012.2mb 13f
10:20pm 21 30 mph 1012.2mb 13f
10:10pm 15 26 mph 1012.2mb 13f
10:00pm 17 25 mph 1011.9mb 14f
9:50pm 18 23 mph 1012.2mb 14f
9:40pm 16 25 mph 1012.2mb 14f
9:30pm 17 24 mph 1012.2mb 14f
9:20pm 20 25 mph 1012.2mb 14f
9:10pm 16 23 mph 1011.9mb 14f
9:00pm 15 23 mph 1012.2mb 13f
8:50pm 15 28 mph 1012.2mb 14f
8:40pm 21 30 mph 1011.9mb 14f
8:30pm 22 33 mph 1012.2mb 14f
8:20pm 17 25 mph 1012.2mb 14f
8:10pm 20 28 mph 1012.5mb 14f
8:00pm 16 25 mph 1012.2mb 14f
7:50pm 16 28 mph 1011.9mb 14f
7:40pm 17 29 mph 1012.2mb 14f
7:30pm 18 26 mph 1012.2mb 14f
7:20pm 20 29 mph 1012.2mb 14f
7:10pm 20 28 mph 1011.9mb 14f
7:00pm 18 24 mph 1011.9mb 14f
6:40pm 21 31 mph 1012.2mb 14f
6:30pm 21 31 mph 1011.9mb 15f
6:20pm 20 28 mph 1011.9mb 15f
6:10pm 17 26 mph 1011.9mb 15f
6:00pm 17 26 mph 1011.9mb 15f
5:50pm 15 22 mph 1011.9mb 15f
5:40pm 17 26 mph 1011.5mb 15f
5:30pm 16 28 mph 1011.5mb 15f
5:20pm 22 29 mph 1011.2mb 15f
5:10pm 23 32 mph 1011.5mb 15f
5:00pm 24 30 mph 1011.2mb 15f
4:50pm 18 29 mph 1011.2mb 16f
4:40pm 21 28 mph 1011.2mb 15f
4:30pm 15 30 mph 1011.2mb 16f
4:20pm 21 28 mph 1010.8mb 16f
4:10pm 18 30 mph 1010.8mb 16f
4:00pm 22 26 mph 1010.5mb 16f
3:50pm 17 24 mph 1010.5mb 17f
3:40pm 17 26 mph 1010.2mb 17f
3:30pm 23 31 mph 1009.8mb 17f
3:20pm 26 32 mph 1009.5mb 18f
3:10pm 21 30 mph 1009.5mb 18f
3:00pm 28 32 mph 1009.1mb 18f
2:50pm 23 26 mph 1009.1mb 18f
2:40pm 20 28 mph 1009.1mb 18f
2:30pm 16 28 mph 1009.1mb 19f
2:20pm 17 29 mph 1009.1mb 19f
2:10pm 23 31 mph 1008.5mb 19f
2:00pm 22 30 mph 1008.5mb 19f
1:50pm 17 29 mph 1008.8mb 19f
1:40pm 21 29 mph 1008.5mb 19f
1:30pm 22 30 mph 1008.5mb 19f
1:20pm 22 26 mph 1008.5mb 19f
1:10pm 21 26 mph 1008.5mb 19f
1:00pm 17 29 mph 1008.5mb 19f
12:40pm 22 28 mph 1008.5mb 18f
12:30pm 21 29 mph 1008.8mb 18f
12:20pm 18 29 mph 1008.8mb 19f
12:10pm 18 28 mph 1008.8mb 19f
12:00pm 22 28 mph 1008.1mb 18f
11:50am 22 30 mph 1008.1mb 18f
11:40am 22 28 mph 1008.5mb 18f
11:30am 23 28 mph 1008.5mb 18f
11:20am 18 28 mph 1008.8mb 18f
11:10am 23 29 mph 1008.8mb 18f
11:00am 20 28 mph 1008.5mb 18f
10:50am 23 28 mph 1008.8mb 18f
10:40am 23 29 mph 1008.5mb 18f
10:30am 24 30 mph 1008.5mb 17f
10:20am 23 29 mph 1008.8mb 17f
10:10am 20 29 mph 1008.5mb 17f
10:00am 22 28 mph 1008.5mb 17f
9:50am 21 30 mph 1008.5mb 17f
9:40am 23 30 mph 1008.5mb 16f
9:30am 23 29 mph 1008.1mb 16f
9:20am 23 28 mph 1008.1mb 16f
9:10am 21 28 mph 1008.1mb 16f
9:00am 24 31 mph 1008.1mb 16f
8:50am 21 28 mph 1008.1mb 16f
8:40am 22 30 mph 1008.1mb 16f
8:30am 23 30 mph 1007.8mb 15f
8:20am 24 29 mph 1008.1mb 15f
8:10am 20 29 mph 1008.5mb 15f
8:00am 21 29 mph 1008.5mb 15f
7:50am 21 29 mph 1008.5mb 15f
7:40am 17 29 mph 1008.5mb 15f
7:30am 21 32 mph 1008.1mb 15f
7:20am 20 26 mph 1008.5mb 15f
7:10am 20 29 mph 1008.5mb 15f
7:00am 20 28 mph 1008.1mb 15f
6:50am 18 29 mph 1007.8mb 15f
6:40am 21 29 mph 1007.8mb 15f
6:30am 21 28 mph 1007.8mb 15f
6:20am 20 28 mph 1007.8mb 15f
6:10am 20 28 mph 1007.8mb 15f
6:00am 20 25 mph 1007.8mb 15f
5:50am 22 28 mph 1007.5mb 15f
5:40am 17 25 mph 1007.5mb 15f
5:30am 17 28 mph 1007.5mb 15f
5:20am 16 23 mph 1007.5mb 15f
5:10am 18 25 mph 1007.5mb 15f
5:00am 18 26 mph 1007.1mb 15f
4:50am 22 26 mph 1007.1mb 15f
4:40am 21 26 mph 1007.1mb 15f
4:30am 21 26 mph 1007.1mb 15f
4:20am 20 26 mph 1007.1mb 15f
4:10am 25 31 mph 1006.8mb 15f
4:00am 17 28 mph 1007.1mb 15f
3:50am 20 28 mph 1006.8mb 15f
3:40am 18 24 mph 1007.1mb 16f
3:30am 16 24 mph 1007.1mb 16f
3:20am 16 24 mph 1007.1mb 15f
3:10am 17 23 mph 1007.1mb 15f
3:00am 17 23 mph 1007.1mb 15f
2:50am 15 23 mph 1007.1mb 16f
2:40am 15 22 mph 1007.1mb 16f
2:30am 16 21 mph 1007.1mb 16f
2:20am 14 23 mph 1007.5mb 16f
2:10am 14 24 mph 1007.1mb 16f
2:00am 18 25 mph 1006.8mb 16f
1:50am 18 23 mph 1007.1mb 16f
1:40am 17 24 mph 1007.1mb 16f
1:30am 16 24 mph 1007.1mb 16f
1:20am 14 23 mph 1007.1mb 16f
1:10am 16 23 mph 1006.8mb 16f
1:00am 18 24 mph 1007.1mb 16f
12:50am 16 26 mph 1006.8mb 17f
12:40am 17 23 mph 1007.1mb 17f
12:30am 20 28 mph 1007.1mb 17f
12:20am 20 28 mph 1007.1mb 17f
12:10am 21 25 mph 1007.1mb 17f
12:00am 20 24 mph 1007.5mb 17f
Mon 02/08 11:50pm 20 25 mph 1007.5mb 17f
11:40pm 18 25 mph 1007.5mb 17f
11:30pm 20 26 mph 1007.5mb 17f
11:20pm 20 23 mph 1007.5mb 17f
11:10pm 17 23 mph 1007.5mb 17f
11:00pm 18 26 mph 1007.5mb 18f
10:50pm 18 23 mph 1007.5mb 17f
10:40pm 18 22 mph 1007.5mb 18f
10:30pm 16 24 mph 1007.8mb 18f
10:20pm 18 23 mph 1007.8mb 18f
10:10pm 18 25 mph 1007.8mb 18f
10:00pm 18 24 mph 1007.8mb 18f
9:50pm 18 24 mph 1007.8mb 18f
9:40pm 22 26 mph 1007.5mb 19f
9:30pm 21 24 mph 1007.5mb 19f
9:20pm 22 28 mph 1007.5mb 19f
9:10pm 21 25 mph 1007.5mb 19f
9:00pm 20 26 mph 1007.5mb 19f
8:50pm 20 26 mph 1007.5mb 19f
8:40pm 20 25 mph 1007.5mb 20f
8:30pm 20 28 mph 1007.5mb 20f
8:20pm 23 29 mph 1007.5mb 20f
8:10pm 21 26 mph 1007.5mb 20f
8:00pm 17 22 mph 1007.5mb 20f
7:50pm 18 24 mph 1007.5mb 20f
7:40pm 18 23 mph 1007.5mb 20f
7:30pm 17 24 mph 1007.5mb 20f
7:20pm 20 28 mph 1007.5mb 21f
7:10pm 22 29 mph 1007.1mb 21f
7:00pm 24 30 mph 1007.1mb 22f
6:50pm 24 29 mph 1007.5mb 22f
6:40pm 23 29 mph 1007.1mb 23f
6:30pm 23 29 mph 1007.1mb 24f
6:20pm 17 22 mph 1007.1mb 24f
6:10pm 16 24 mph 1007.1mb 24f
6:00pm 20 24 mph 1007.1mb 24f
5:50pm 21 25 mph 1006.8mb 24f
5:40pm 18 22 mph 1006.8mb 24f
5:30pm 17 21 mph 1006.8mb 24f
5:20pm 17 21 mph 1006.4mb 24f
5:10pm 17 22 mph 1006.4mb 25f
5:00pm 17 24 mph 1006.4mb 25f
4:50pm 21 24 mph 1006.1mb 25f
4:40pm 22 24 mph 1006.1mb 25f
4:30pm 20 24 mph 1006.1mb 25f
4:20pm 20 24 mph 1005.8mb 25f
4:10pm 17 21 mph 1006.1mb 25f
4:00pm 18 21 mph 1005.8mb 25f
3:50pm 15 20 mph 1005.8mb 26f
3:40pm 20 23 mph 1005.4mb 26f
3:30pm 18 23 mph 1005.4mb 26f
3:20pm 20 23 mph 1005.1mb 26f